"Pseudo-MPEC" for P112ejU

Created 2020 Jul 10 15:07:05 UT using Find_Orb

Click here for an explanation of pseudo-MPECs

 
 Astrometry: 
     P112ejU  C2020 06 28]8#.k)CxNfC7:DSo-J[,^rldlX16k+A)CD7h(Z@VdG;.doJEcqn'F51
     P112ejU  C2020 06 28=lSLwNUusl=AstrometryU'^1'H2v03:redacted;7_(0P[M0N\%F51
     P112ejU  C2020 06 28/7(^7?VHX4QhclickGkH_+*9;Zuik#I'(Xs]:1UQP1S*Chereh[eF51
     P112ejU  C2020 06 28iM4NXBsyqbDNforfKexplanation0Dxm9/j_gxj0f%vURd^d(Z8[F51
     P112ejU ^C2020 06 29.43884020 12 50.852-34 08 53.19   ~6TK7 21.57GVNEOCP568
     P112ejU ^C2020 06 29.43978620 12 50.769-34 08 48.31   ~6TK7 22.21GVNEOCP568
     P112ejU ^C2020 06 29.44073520 12 50.680-34 08 43.21   ~6TK7 21.92GVNEOCP568

Station data:
(568) Mauna Kea  (N19.826116 W155.472200)  US/Hawaii.
(F51) Pan-STARRS 1, Haleakala  (N20.707235 W156.255910)  US/Hawaii.
   Observers N. Primak, A. Schultz, S. Watters, J. Thiel, T. Goggia. Measurer
   PS1 Science Consortium. 1.8-m Ritchey-Chrétien + CCD.

Orbital elements:  P112ejU
   Perihelion 2020 Jun 27.486253 +/- 15.9 TT = 11:40:12 (JD 2459027.986253)
Epoch 2020 Jun 29.0 TT = JDT 2459029.5   Earth MOID: 0.1658   AutoNEOCP
M   0.74988088 +/- 8                (J2000 ecliptic)
n   0.49538065 +/- 0.0504           Peri.  350.94117 +/- 500
a   1.58189149 +/- 0.107            Node   287.80642 +/- 0.41
e   0.2537922 +/- 0.0428            Incl.   16.22503 +/- 1.3
P   1.99/726.70d           H 24.6   G  0.15   U 10.7  
q 1.18041974 +/- 0.0135    Q 1.98336324 +/- 0.208
From 7 observations 2020 June 28-29 (23.0 hr); mean residual 0".18
Residuals in arcseconds: 
200628 F51  .04+  .31-    200628 F51  .02-  .07-    200629 568  .00   .02+    
200628 F51  .08-  .56+    200629 568  .03-  .05+    
200628 F51  .06+  .19-    200629 568  .02+  .07-    

Ephemerides (geocentric):
Date (UTC) HH   RA              Dec         delta   r     elong  mag " sig PA
---- -- -- --  -------------   -----------  ------ ------ -----  --- ---- ---
2020 07 10 15  19 58 19.213   -16 17 29.67  .17098 1.1850 169.3 21.7  696 166
2020 07 10 16  19 58 15.871   -16 13 27.89  .17101 1.1851 169.3 21.7  701 166
2020 07 10 17  19 58 12.529   -16 09 26.21  .17103 1.1851 169.3 21.7  706 166
2020 07 10 18  19 58 09.188   -16 05 24.63  .17106 1.1851 169.3 21.7  710 166
2020 07 10 19  19 58 05.848   -16 01 23.14  .17109 1.1852 169.3 21.7  715 166
2020 07 10 20  19 58 02.508   -15 57 21.75  .17111 1.1852 169.3 21.7  720 166
2020 07 10 21  19 57 59.170   -15 53 20.47  .17114 1.1852 169.3 21.7  725 166
2020 07 10 22  19 57 55.832   -15 49 19.28  .17117 1.1853 169.3 21.7  729 166
2020 07 10 23  19 57 52.496   -15 45 18.20  .17120 1.1853 169.3 21.7  734 166
2020 07 11 00  19 57 49.160   -15 41 17.22  .17123 1.1853 169.3 21.7  739 166
2020 07 11 01  19 57 45.825   -15 37 16.35  .17126 1.1853 169.3 21.7  744 166
2020 07 11 02  19 57 42.491   -15 33 15.58  .17129 1.1854 169.3 21.7  749 166
2020 07 11 03  19 57 39.158   -15 29 14.92  .17132 1.1854 169.3 21.7  754 166
2020 07 11 04  19 57 35.826   -15 25 14.37  .17135 1.1854 169.3 21.7  758 166
2020 07 11 05  19 57 32.495   -15 21 13.93  .17138 1.1855 169.4 21.7  763 166
2020 07 11 06  19 57 29.165   -15 17 13.60  .17141 1.1855 169.4 21.7  768 166
2020 07 11 07  19 57 25.836   -15 13 13.39  .17144 1.1855 169.4 21.7  773 166
2020 07 11 08  19 57 22.508   -15 09 13.28  .17148 1.1856 169.4 21.7  778 166
2020 07 11 09  19 57 19.181   -15 05 13.30  .17151 1.1856 169.4 21.7  783 166
2020 07 11 10  19 57 15.855   -15 01 13.42  .17154 1.1856 169.4 21.7  788 166
2020 07 11 11  19 57 12.530   -14 57 13.67  .17157 1.1857 169.3 21.7  793 166
2020 07 11 12  19 57 09.206   -14 53 14.03  .17161 1.1857 169.3 21.7  797 166
2020 07 11 13  19 57 05.884   -14 49 14.52  .17164 1.1857 169.3 21.7  802 166
2020 07 11 14  19 57 02.562   -14 45 15.12  .17168 1.1857 169.3 21.7  807 166
2020 07 11 15  19 56 59.242   -14 41 15.85  .17171 1.1858 169.3 21.7  812 166
2020 07 11 16  19 56 55.923   -14 37 16.70  .17175 1.1858 169.3 21.7  817 166
2020 07 11 17  19 56 52.605   -14 33 17.67  .17178 1.1858 169.3 21.7  822 166
2020 07 11 18  19 56 49.288   -14 29 18.77  .17182 1.1859 169.3 21.7  827 166
2020 07 11 19  19 56 45.973   -14 25 20.00  .17185 1.1859 169.3 21.7  832 166
2020 07 11 20  19 56 42.658   -14 21 21.36  .17189 1.1859 169.3 21.7  837 166
2020 07 11 21  19 56 39.345   -14 17 22.84  .17193 1.1860 169.3 21.7  842 166
2020 07 11 22  19 56 36.033   -14 13 24.45  .17197 1.1860 169.3 21.7  847 166
2020 07 11 23  19 56 32.723   -14 09 26.20  .17200 1.1860 169.3 21.7  852 166
2020 07 12 00  19 56 29.414   -14 05 28.08  .17204 1.1861 169.3 21.7  857 166
2020 07 12 01  19 56 26.106   -14 01 30.09  .17208 1.1861 169.3 21.7  862 166
2020 07 12 02  19 56 22.799   -13 57 32.24  .17212 1.1861 169.3 21.7  867 166
2020 07 12 03  19 56 19.494   -13 53 34.53  .17216 1.1862 169.2 21.7  872 166
2020 07 12 04  19 56 16.190   -13 49 36.95  .17220 1.1862 169.2 21.7  877 166
2020 07 12 05  19 56 12.887   -13 45 39.51  .17224 1.1862 169.2 21.7  882 166
2020 07 12 06  19 56 09.586   -13 41 42.21  .17228 1.1863 169.2 21.7  888 166
2020 07 12 07  19 56 06.286   -13 37 45.05  .17232 1.1863 169.2 21.7  893 166
2020 07 12 08  19 56 02.988   -13 33 48.03  .17236 1.1863 169.2 21.7  898 166
2020 07 12 09  19 55 59.691   -13 29 51.16  .17240 1.1864 169.2 21.8  903 166
2020 07 12 10  19 55 56.396   -13 25 54.43  .17244 1.1864 169.2 21.8  908 166
2020 07 12 11  19 55 53.102   -13 21 57.84  .17248 1.1864 169.1 21.8  913 166
2020 07 12 12  19 55 49.809   -13 18 01.41  .17253 1.1865 169.1 21.8  918 166
2020 07 12 13  19 55 46.518   -13 14 05.12  .17257 1.1865 169.1 21.8  923 166
2020 07 12 14  19 55 43.229   -13 10 08.98  .17261 1.1865 169.1 21.8  928 166